Home > Weather > Hayward > Past weeks

Flag for USA Past Weather in Hayward, California, USA — Yesterday and Last 2 Weeks

Now
70 °F

Sunny.


Feels Like: 77 °F
Forecast: 57 / 72 °F
Wind: 15 mph from Northwest

Location: Hayward Air Terminal

Current Time: Aug 25, 2016 at 4:58:35 PM

Latest Report: Aug 25, 2016 at 3:54 PM


Visibility: 10 mi

Pressure: 29.91 "Hg

Humidity: 55%

Dew Point: 53 °F

Location of HaywardLocation

Past Weather in Hayward — Graph

°F

Hayward Temperature Yesterday

Maximum temperature yesterday: 72 °F (at 2:54 PM)
Minimum temperature yesterday: 59 °F (at 5:54 AM)
Average temperature yesterday: 63 °F

High & Low Weather Summary for the Past Weeks

 TemperatureHumidityPressure
High80 °F (Aug 13, 2:54 PM)84% (Aug 12, 4:54 AM)30.14 "Hg (Aug 12, 4:54 AM)
Low56 °F (Aug 13, 3:54 AM)42% (Aug 13, 1:54 PM)29.82 "Hg (Aug 17, 4:54 PM)
Average64 °F69%29.97 "Hg
* Reported Aug 10 2:54 PM — Aug 25 2:54 PM, Hayward, Weather by CustomWeather, © 2016

Note: Actual official high and low records may vary slightly from our data, if they occured in-between our weather recording intervals... More about our weather records

Advertising

Hayward Weather History for the Previous 24 Hours

Scroll right to see more
 ConditionsComfort  
Time TempWeatherWind HumidityBarometerVisibility
2:54 PM
Thu, Aug 25
70 °FSunny.14 mph55%29.93 "Hg10 mi
1:54 PM68 °FSunny.10 mph57%29.95 "Hg10 mi
12:54 PM66 °FSunny.8 mph61%29.97 "Hg10 mi
12:03 PM64 °FScattered clouds.6 mph63%29.96 "Hg10 mi
11:54 AM64 °FScattered clouds.6 mph63%29.99 "Hg10 mi
10:54 AM62 °FOvercast.6 mph67%30.00 "Hg10 mi
9:54 AM60 °FOvercast.5 mph72%30.01 "Hg10 mi
8:54 AM59 °FLow clouds.5 mph75%30.01 "Hg10 mi
7:54 AM58 °FLow clouds.8 mph78%30.01 "Hg10 mi
6:54 AM58 °FLow clouds.5 mph78%30.00 "Hg10 mi
5:54 AM58 °FLow clouds.7 mph78%29.98 "Hg10 mi
4:54 AM58 °FLow clouds.7 mph78%29.98 "Hg10 mi
3:54 AM59 °FLow clouds.5 mph78%29.98 "Hg10 mi
2:54 AM59 °FLow clouds.3 mph75%29.98 "Hg10 mi
1:54 AM59 °FLow clouds.6 mph78%29.99 "Hg10 mi
12:54 AM59 °FLow clouds.5 mph78%30.01 "Hg10 mi
11:54 PM
Wed, Aug 24
59 °FLow clouds.7 mph78%30.02 "Hg10 mi
10:54 PM60 °FLow clouds.7 mph75%30.02 "Hg10 mi
9:54 PM59 °FLow clouds.7 mph78%30.03 "Hg10 mi
8:54 PM59 °FClear.7 mph78%30.02 "Hg10 mi
7:54 PM60 °FSunny.10 mph72%30.01 "Hg10 mi
6:54 PM64 °FSunny.13 mph65%30.01 "Hg10 mi
5:54 PM66 °FSunny.15 mph61%30.01 "Hg10 mi
4:54 PM69 °FSunny.17 mph55%30.02 "Hg10 mi
Weather by CustomWeather, © 2016

See weather overviewHow to use our weather pages